K5RG-3 Weather Reports


time (UTC)temp
F
wind
direction
speed
knots
gust
knots
rain 1hr
in
rain 24hr
in
rain mn
in
humidity
%
barometer
mb
20220930161514 72 85 7.8 10.4 0.00 0.00 0.00 47 1016.7
20220930160010 72 69 5.2 10.4 0.00 0.00 0.00 50 1016.9
20220930154537 71 56 3.5 11.3 0.00 0.00 0.00 53 1016.9
20220930153007 71 356 6.1 9.6 0.00 0.00 0.00 54 1016.9
20220930151523 70 69 5.2 9.6 0.00 0.00 0.00 56 1016.8
20220930150006 70 46 4.3 7.8 0.00 0.00 0.00 57 1016.9
20220930144504 69 31 5.2 9.6 0.00 0.00 0.00 57 1017.0
20220930143102 69 61 3.5 7.8 0.00 0.00 0.00 58 1017.0
20220930141606 68 95 2.6 7.8 0.00 0.00 0.00 59 1016.8
20220930140058 67 54 2.6 6.1 0.00 0.00 0.00 63 1016.9
20220930134548 66 32 1.7 5.2 0.00 0.00 0.00 65 1016.9
20220930133054 64 16 2.6 6.1 0.00 0.00 0.00 66 1016.9
20220930131541 63 37 2.6 5.2 0.00 0.00 0.00 66 1016.9
20220930130101 62 12 1.7 6.1 0.00 0.00 0.00 66 1016.8
20220930124544 62 360 1.7 5.2 0.00 0.00 0.00 66 1016.9
20220930123050 62 360 0.9 4.3 0.00 0.00 0.00 66 1016.9
20220930121533 63 31 0.9 6.1 0.00 0.00 0.00 64 1016.7
20220930120032 64 44 2.6 7.8 0.00 0.00 0.00 62 1016.5
20220930114538 64 8 2.6 8.7 0.00 0.00 0.00 63 1016.5
20220930113039 63 343 3.5 7.0 0.00 0.00 0.00 65 1016.4
20220930111529 64 27 2.6 7.0 0.00 0.00 0.00 65 1016.4
20220930110035 64 52 3.5 6.1 0.00 0.00 0.00 64 1016.2
20220930104526 64 15 2.6 6.1 0.00 0.00 0.00 62 1016.2
20220930103025 64 14 3.5 6.1 0.00 0.00 0.00 62 1016.1
20220930101523 64 9 1.7 5.2 0.00 0.00 0.00 62 1016.0
20220930100040 65 5 1.7 5.2 0.00 0.00 0.00 63 1016.2
20220930094520 65 7 1.7 5.2 0.00 0.00 0.00 62 1016.2
20220930093019 66 354 1.7 4.3 0.00 0.00 0.00 61 1016.1
20220930091522 68 351 1.7 4.3 0.00 0.00 0.00 59 1016.2
20220930090023 69 52 2.6 10.4 0.00 0.00 0.00 50 1016.3
20220930084509 69 73 7.8 13.9 0.00 0.00 0.00 50 1016.2
20220930083014 69 87 4.3 16.5 0.00 0.00 0.00 50 1016.2
20220930081507 69 85 8.7 14.8 0.00 0.00 0.00 50 1016.3
20220930080007 69 62 9.6 17.4 0.00 0.00 0.00 49 1016.3
20220930074504 69 66 9.6 15.6 0.00 0.00 0.00 51 1016.4
20220930073010 69 50 8.7 15.6 0.00 0.00 0.00 52 1016.6
20220930071500 70 52 9.6 17.4 0.00 0.00 0.00 51 1016.7
20220930070109 70 87 8.7 22.6 0.00 0.00 0.00 51 1016.8
20220930064558 70 80 8.7 19.1 0.00 0.00 0.00 50 1016.9
20220930063055 70 67 11.3 18.2 0.00 0.00 0.00 51 1016.9
20220930061607 70 72 7.0 22.6 0.00 0.00 0.00 51 1017.0
20220930060052 71 59 12.2 17.4 0.00 0.00 0.00 49 1016.9
20220930054549 71 53 8.7 21.7 0.00 0.00 0.00 51 1017.0
20220930053055 72 68 13.0 23.5 0.00 0.00 0.00 49 1017.0
20220930051606 72 56 12.2 21.7 0.00 0.00 0.00 50 1017.0
20220930050058 73 62 13.9 21.7 0.00 0.00 0.00 47 1017.0
20220930044603 73 61 13.0 21.7 0.00 0.00 0.00 48 1017.0
20220930043048 74 35 8.7 17.4 0.00 0.00 0.00 47 1017.1
20220930041551 74 44 10.4 17.4 0.00 0.00 0.00 47 1017.0
20220930040040 74 38 9.6 16.5 0.00 0.00 0.00 44 1017.0
20220930034639 74 47 4.3 10.4 0.00 0.00 0.00 42 1016.9
20220930033106 75 4 4.3 13.0 0.00 0.00 0.00 43 1016.8
20220930031547 75 44 6.1 14.8 0.00 0.00 0.00 47 1016.8
20220930030105 73 50 4.3 7.0 0.00 0.00 0.00 53 1016.6
20220930024546 73 32 2.6 4.3 0.00 0.00 0.00 53 1016.5
20220930023038 73 23 1.7 5.2 0.00 0.00 0.00 52 1016.4
20220930021558 73 351 0.9 2.6 0.00 0.00 0.00 53 1016.3
20220930020044 73 356 1.7 4.3 0.00 0.00 0.00 54 1016.1
20220930014554 73 46 1.7 7.0 0.00 0.00 0.00 55 1016.0
20220930013041 73 82 0.0 1.7 0.00 0.00 0.00 57 1015.8
20220930011534 74 82 0.9 2.6 0.00 0.00 0.00 55 1015.7
20220930010034 76 82 0.9 2.6 0.00 0.00 0.00 52 1015.6
20220930004533 77 82 1.7 3.5 0.00 0.00 0.00 50 1015.5
20220930003033 78 82 1.7 4.3 0.00 0.00 0.00 48 1015.5
20220930001532 79 31 1.7 3.5 0.00 0.00 0.00 43 1015.6
20220930000036 80 329 1.7 4.3 0.00 0.00 0.00 42 1015.4
20220929234547 80 44 0.9 3.5 0.00 0.00 0.00 41 1015.3
20220929233029 81 51 0.9 3.5 0.00 0.00 0.00 40 1015.5
20220929231532 81 55 0.9 4.3 0.00 0.00 0.00 40 1015.5
20220929230027 81 62 1.7 7.0 0.00 0.00 0.00 41 1015.6
20220929224525 81 43 2.6 6.1 0.00 0.00 0.00 40 1015.8
20220929223024 82 336 1.7 6.1 0.00 0.00 0.00 39 1015.9
20220929221523 83 64 1.7 7.0 0.00 0.00 0.00 36 1016.0
20220929220028 83 308 1.7 8.7 0.00 0.00 0.00 37 1016.1
20220929214522 82 64 2.6 9.6 0.00 0.00 0.00 37 1016.2
20220929213038 82 73 2.6 7.0 0.00 0.00 0.00 38 1016.5
20220929211536 82 12 5.2 9.6 0.00 0.00 0.00 35 1016.7
20220929210019 82 358 3.5 13.9 0.00 0.00 0.00 36 1016.8
20220929204511 82 3 3.5 10.4 0.00 0.00 0.00 35 1017.0
20220929203009 82 339 3.5 8.7 0.00 0.00 0.00 34 1017.2
20220929201516 81 337 4.3 9.6 0.00 0.00 0.00 33 1017.4
20220929200003 81 94 5.2 9.6 0.00 0.00 0.00 35 1017.6
20220929194600 80 40 1.7 8.7 0.00 0.00 0.00 34 1017.9
20220929193107 80 68 4.3 8.7 0.00 0.00 0.00 35 1018.3
20220929191646 80 75 3.5 7.8 0.00 0.00 0.00 36 1018.6
20220929190052 78 60 1.7 8.7 0.00 0.00 0.00 40 1019.0
20220929184548 78 49 3.5 9.6 0.00 0.00 0.00 38 1019.4
20220929183046 78 58 6.1 10.4 0.00 0.00 0.00 36 1019.7
20220929181545 78 58 4.3 10.4 0.00 0.00 0.00 37 1020.0
20220929180041 77 63 6.1 13.0 0.00 0.00 0.00 36 1020.3
20220929174539 76 33 4.3 7.8 0.00 0.00 0.00 38 1020.6
20220929173041 75 46 8.7 12.2 0.00 0.00 0.00 36 1020.9
20220929171539 76 18 6.1 11.3 0.00 0.00 0.00 37 1021.1
20220929170042 75 72 7.0 11.3 0.00 0.00 0.00 37 1021.3
20220929164536 75 56 6.1 12.2 0.00 0.00 0.00 36 1021.5
20220929163036 74 40 6.1 13.0 0.00 0.00 0.00 39 1021.5